www.pogodaiklimat.ru
ПОГОДА в Эфрате
Время
и дата
13:53 05.02
14:04 05.02
14:17 05.02
14:30 05.02
14:53 05.02
15:53 05.02
16:53 05.02
17:53 05.02
18:53 05.02
19:53 05.02
19:55 05.02
19:58 05.02
20:03 05.02
20:20 05.02
20:53 05.02
21:09 05.02
21:23 05.02
21:45 05.02
21:53 05.02
22:53 05.02
23:16 05.02
23:53 05.02
00:53 06.02
01:01 06.02
01:18 06.02
01:23 06.02
01:28 06.02
01:38 06.02
01:45 06.02
01:53 06.02
02:53 06.02
03:53 06.02
04:53 06.02
05:53 06.02
06:53 06.02
07:53 06.02
08:53 06.02
09:53 06.02
10:53 06.02
11:53 06.02
12:53 06.02
13:53 06.02
14:53 06.02
15:53 06.02
16:53 06.02
17:53 06.02
18:53 06.02
19:53 06.02
Ветер
(напр.,м/с)
Видим. Явления Облачность Т
(С)
Тd
(С)
f
(%)
Тe
(С)
Тes
(С)
Комфортность P
(гПа)
Po
(гПа)
Тmin
(С)
Tmax
(С)
R
(мм)
R24
(мм)
S
(см)
ЮЗ 4 16 км 5/5 450 м +6.7 +3.9 82 +3 +4 1009.7 963.3
ЮЗ 4 16 км 8/8 270 м +6.1 +3.9 86 +2 +3 963.3
ЮЗ 4 16 км 8/8 330 м +5.6 +3.3 85 +2 +2 963.3
ЮЗ 4 16 км 8/5 300 m
[Ac]
+5.6 +2.8 82 +2 +2 963.7
Ю 3 16 км 2/0 3300 m
[Ac]
+5.6 +2.8 82 +2 +4 1010.5 964.0
ЮЗ 4 16 км 8/0 3300 m
[Ac]
+5.6 +2.8 82 +2 +2 1011.4 964.6 +3.3 +6.7 1.0
Ю 3 16 км 10/0 2700 m
[Ac]
+3.9 +2.8 93 0 0 1012.2 965.6
Ю 3 16 км 8/0 3300 m
[Ac]
+2.2 +1.7 96 -2 -2 1013.1 966.2
Ю 4 10 км дымка ясно +1.7 +1.1 96 -4 -4 1013.8 966.9
С 2 5 км дымка 2/0 3600 m
[Ac]
+0.6 0.0 96 -3 -3 1014.6 967.5
С 3 3 км дымка 2/2 30 м 0.0 -0.6 96 -5 -5 967.5
С 3 2 км дымка ?/? +0.6 -0.6 92 -4 -4 967.5
С 3 400 м туман ?/? 0.0 -0.6 96 -5 -5 967.9
С 2 <100 м туман ?/? +0.6 +0.6 100 -3 -3 967.9
СВ 2 <100 м туман ?/? +1.1 +0.6 96 -3 -3 1015.7 968.5
СВ 2 400 м туман ?/? +1.1 +0.6 96 -3 -3 968.8
СВ 2 <100 м туман ?/? +1.1 +0.6 96 -3 -3 969.1
СВ 3 400 м туман ?/? +1.1 +0.6 96 -4 -4 969.5
СВ 2 400 м туман ?/? +1.1 +0.6 96 -3 -3 1016.7 969.5 +5.6
В 2 800 м переохлажденный туман ?/? -0.6 -0.6 100 -5 -5 1017.5 970.4
В 2 400 м переохлажденный туман ?/? -0.6 -1.7 92 -4 -4 970.8
В 3 400 м переохлажденный туман ?/? -0.6 -0.6 100 -6 -6 1018.6 971.4
штиль 0 400 м переохлажденный туман ?/? -1.7 -2.2 96 -3 -3 1019.4 972.1
штиль 0 2 км дымка ?/? -1.7 -2.2 96 -3 -3 972.4
В 3 800 м переохлажденный туман ?/? -1.1 -1.7 96 -6 -6 972.4
В 4 3 км дымка 8/8 30 м -1.1 -1.7 96 -7 -7 972.4
В 4 1 км дымка ?/? -1.1 -2.2 92 -7 -7 972.7
ЮВ 4 4 км дымка 5/5 30 м -1.7 -2.2 96 -8 -8 972.7
ЮВ 3 14 км 2/2 30 м -1.7 -2.2 96 -7 -7 972.7
ЮВ 4 14 км 2/2 30 м -1.7 -2.2 96 -8 -8 1020.2 973.0
В 4 16 км ясно -1.1 -1.7 96 -7 -7 1021.4 974.0
штиль 0 16 км ясно -1.1 -1.7 96 -2 -2 1022.3 975.0 -1.7 +1.1 1.8
В 2 16 км 5/0 3600 m
[Ac]
0.0 -1.1 92 -4 -4 1023.1 975.6
СВ 4 16 км ясно -0.6 -1.1 96 -6 -6 1023.7 975.9
Ю 2 16 км ясно +1.7 -1.1 82 -2 -2 1024.3 976.6
нст 2 16 км ясно +3.9 -1.1 70 +1 +1 1025.0 977.2
штиль 0 16 км ясно +5.6 0.0 67 +5 +5 1025.1 977.6
ЮЗ 5 16 км ясно +5.6 +0.6 70 +1 +2 1025.8 978.2 -1.1 +6.1
Ю 2 16 км ясно +5.6 +1.1 73 +3 +6 1026.4 978.8
ЮЗ 2 16 км ясно +5.6 +0.6 70 +3 +8 1025.9 978.2
ЮЗ 5 16 км ясно +6.1 +0.6 68 +2 +4 1025.5 977.9
ЮЗ 5 16 км ясно +5.0 +0.6 73 +1 +3 1025.3 977.6
ЮЗ 3 16 км ясно +6.1 +1.1 70 +3 +6 1025.7 978.2
ЮЗ 4 16 км ясно +5.0 +1.7 79 +1 +2 1025.8 978.2 +5.0 +8.3
ЮЗ 2 16 км ясно +4.4 +0.6 76 +2 +2 1025.7 977.9
ЮВ 4 16 км ясно +2.8 +0.6 85 -2 -2 1025.5 977.9
штиль 0 16 км ясно +1.7 0.0 88 +1 +1 1025.4 977.9
ЮЗ 5 16 км ясно +1.7 -0.6 85 -4 -4 1025.2 977.6
Местоположение метеостанции Ephrata Municipal Airport: широта 47.3075 долгота -119.5158 высота над уровнем моря 389 м.
В архиве по умолчанию представлена погода в Эфрате за последние 1-2 суток. Обновление информации о фактической погоде в базе происходит ежечасно! Архивные данные за месяц целиком и за предыдущие месяцы Вы можете получить, выбрав интересующий диапазон дат из раскрывающегося списка и нажав кнопку "Ввод!".
Внимание! Архив погоды МЕТАР в базе сайта по станциям, не включенным в климатический монитор, хранится не более 60 дней. Нет смысла пытаться выбрать более раннюю дату.
*Определитесь, кто Вы:
Внимание! Время в таблицах - местное (без учета летнего времени). Для получения всемирного времени необходимо вычесть поправку, которая равна -8 ч.
Смотрите также архив погоды в соседних городах и на ближайших метеорологических станциях:
Партнеры нашего сайта:      
Пояснения к столбцам:
  • Ветер - указаны скорость ветра в м/с - средняя за 10 мин, порывы в срок и между сроками (в фигурных скобках) и направление, откуда дует ветер: С - северный,
  • СВ - северо-восточный, В - восточный, ЮВ - юго-восточный, Ю - южный, ЮЗ - юго-западный, З - западный, СЗ - северо-западный.
  • Видимость - горизонтальная дальность видимости в метрах или километрах. При видимости от 1 до 10 км при отсутствии осадков обычно наблюдается дымка, при ухудшении видимости до 1 км и менее - туман. В сухую погоду видимость может ухудшаться дымом, пылью или мглою.
  • Явления - указаны атмосферные явления, наблюдавшиеся в срок или в последний час перед сроком; фигурными скобками обозначены явления, наблюдавшиеся между сроками (за 1-3 часа до срока); квадратными скобками обозначены град или гололедные отложения с указанием их диаметра в мм.
  • Облачность - указаны через наклонную черту общая и нижняя облачность в баллах и высота нижней границы облаков в метрах; квадратными скобками обозначены формы облаков: Ci - перистые, Cs - перисто-слоистые, Cc - перисто-кучевые, Ac - высококучевые, As - высокослоистые, Sc - слоисто-кучевые, Ns - слоисто-дождевые, Cu - кучевые, Cb - кучево-дождевые. Подробнее классификацию облаков см. в Атласе облаков (PDF).
  • T - Температура воздуха - температура, измеренная на высоте 2 м над землей.
  • Td - Температура точки росы - температура, при понижении до которой содержащийся в воздухе водяной пар достигнет насыщения.
  • f - Относительная влажность воздуха - влажноcть воздуха, измеренная на высоте 2 м над землей.
  • Te - Эффективная температура - температура, которую ощущает одетый по сезону человек в тени. Характеристика душности погоды. При расчете учитывается влияние влажности воздуха и скорости ветра на теплоощущения человека.
  • Tes - Эффективная температура на солнце - температура, которую ощущает человек, с поправкой на солнечный нагрев. Характеристика знойности погоды. Зависит от высоты солнца над горизонтом, облачности и скорости ветра. Ночью, в пасмурную погоду, а также при ветре 12 м/с и более поправка равна нулю.
  • P - Атмосферное давление - приведенное к уровню моря атмосферное давление.
  • Po - Атмосферное давление - измеренное на уровне метеостанции атмосферное давление.
  • Tmin - Минимальная температура - минимум температуры воздуха на высоте 2 м над землей.
  • Tmax - Максимальная температура - максимум температуры воздуха на высоте 2 м над землей.
  • R - Количество осадков - Количество выпавших осадков за период времени, мм. При наведении курсора мыши на число - период времени, за который выпало указанное количество осадков.
  • R24 - Количество осадков - Количество выпавших осадков за 24 часа, мм.
  • S - Снежный покров - Высота снежного покрова, см. При наведении курсора мыши на число - состояние снежного покрова и степень покрытия местности в баллах.